Regional Weather Roundup
Issued by NWS Pendleton, OR

Home | Current Version | Previous Version | Text Only | Print | Product List | Glossary On
Versions: 1 2 3 4 5 6 7 8 9 10 11 12 13 14 15 16 17 18 19 20 21 22 23 24 25 26 27 28 29 30 31 32 33 34 35 36 37 38 39 40 41 42 43 44 45 46 47 48 49 50
000
ASUS46 KPDT 182310
RWRPDT
PENDLETON REGIONAL WEATHER ROUNDUP
NATIONAL WEATHER SERVICE PENDLETON OREGON
300 PM PST THU DEC 18 2014

NOTE: FAIR INDICATES FEW OR NO CLOUDS BELOW 12,000 FEET WITH NO
SIGNIFICANT WEATHER AND/OR OBSTRUCTIONS TO VISIBILITY.

# INDICATES UNOFFICIAL STATION AND DATA

WAZ520-190010-
EAST SLOPES OF WASHINGTON CASCADES

CITY            SKY/WX      TMP DP  RH  WIND    PRES   REMARKS
#BULLFROG 2SW   N/A         36  36  100 CALM    27.52R
#BUMPING DAM    N/A         33  N/A N/A CALM    N/A
#CLE ELUM HS    N/A         37  33  85  CALM    29.88F
#CLE ELUM 2NW   N/A         33  33  100 NE1     N/A
#CLE ELUM LAKE  N/A         32  31  96  CALM    29.97S
#CLIFFDEL 2NW   N/A         34  33  96  CALM    N/A
#EASTON DOT     N/A         33  33  100 N2      N/A
#GLENWOOD       N/A         38  37  96  CALM    29.97F
#MANASTASH CYN  N/A         32  29  89  CALM    29.89R
#NELSON         N/A         34  33  96  CALM    30.00S
#NELSON 3SW     N/A         31  30  96  CALM    30.18F
#NILE           N/A         35  33  92  CALM    29.23S
#PEOH POINT     N/A         28  27  96  CALM    N/A
#RONALD 2NW     N/A         33  31  92  CALM    29.78S
#SNOWDEN        N/A         37  36  96  CALM    N/A
#TEANAWAY 4NE   N/A         35  35  100 CALM    N/A
#TROUT LAKE HS  N/A         41  41  100 SE1     N/A
#TROUT LAKE 1NE N/A         38  37  96  CALM    29.97F
$$

WAZ521-190010-
SIMCOE HIGHLANDS

CITY            SKY/WX      TMP DP  RH  WIND    PRES   REMARKS
#BICKLETON HS   N/A         39  32  76  CALM    32.80R
#SATUS PASS DOT N/A         37  35  92  CALM    N/A
#CENTERVILLE 4W N/A         40  39  96  E3      29.67F
#CENTERVILLE 1SWN/A         38  36  92  CALM    29.94F
#GOLDENDALE     N/A         41  40  96  NW2     N/A
#GOLDENDALE 1NE N/A         42  38  86  CALM    N/A
#GOLDENDALE 1S  N/A         41  39  93  CALM    29.90S
#GOLDENDALE 5WNWN/A         40  39  96  CALM    29.96F
#GOODNOE HILLS  N/A         38  36  92  SE3     N/A
#LYLE 6NE       N/A         37  36  96  CALM    29.95F
$$

WAZ026-190010-
KITTITAS VALLEY

CITY            SKY/WX      TMP DP  RH  WIND    PRES   REMARKS
ELLENSBURG AP   LGT RAIN    38  34  85  W3      29.93F
#ELLENSBURG CWU N/A         36  34  92  CALM    29.94F
#ELLENSBURG 3NE N/A         35  33  92  CALM    29.94S
#ELLENSBURG     N/A         39  39  100 CALM    N/A
#ELLENSBURG 1E  N/A         36  34  92  CALM    N/A
#KITTITAS 4N    N/A         38  34  85  CALM    29.97S
#KITTITAS 3S    N/A         36  35  96  CALM    29.98S
#THORP 6N       N/A         33  32  96  S1      30.01S
$$

WAZ027-190010-
YAKIMA VALLEY

CITY            SKY/WX      TMP DP  RH  WIND    PRES   REMARKS
YAKIMA AIRPORT  CLOUDY      42  35  76  CALM    29.96S
YAKIMA-VAGABOND LGT RAIN    39  36  89  S2      29.96S
#DONALD 2NE     N/A         38  37  96  CALM    28.81F
#GRANDVIEW      N/A         40  37  89  NE2     30.01F
#MABTON         N/A         39  38  96  CALM    29.97S
#MOXEE 2E       N/A         35  34  96  CALM    29.94R
#NACHES 2SW     N/A         38  37  96  CALM    29.93F
#TERRACE HTS    N/A         39  37  92  CALM    29.97R
#WAPATO 4NE     N/A         38  37  96  CALM    28.81F
#WEST VALLEY    N/A         40  36  85  CALM    29.97S
#W YAKIMA       N/A         40  36  85  CALM    29.99S
#WHITE SWAN 5E  N/A         39  38  96  E1      30.00S
#WILEY CITY 3W  N/A         37  29  72  CALM    29.98S
$$

WAZ028-190010-
LOWER COLUMBIA BASIN...WASHINGTON

CITY            SKY/WX      TMP DP  RH  WIND    PRES   REMARKS
PASCO           CLOUDY      41  38  89  CALM    30.00S
PROSSER AWOS    N/A         39  39  100 NE8     30.01S
RICHLAND AWOS   CLOUDY      41  37  86  CALM    30.01S
#BASIN CITY 5SW N/A         40  38  92  W3      29.99S
#BENTON CITY    N/A         38  36  92  E3      29.92S
#CONNELL 5N     N/A         40  38  92  CALM    30.00S
#CONNELL 5NW    N/A         40  39  96  CALM    29.96F
#ELTOPIA        N/A         42  40  93  CALM    29.98S
#ELTOPIA 6NW    N/A         40  39  96  CALM    28.94S
#KAHLOTUS       N/A         40  38  92  CALM    30.01S
#KENNEWICK      N/A         36  36  100 CALM    27.52R
#KENNEWICK 3S   N/A         39  37  92  CALM    30.02S
#PASCO-BROADMOORN/A         42  37  82  CALM    29.91F
#PATERSON       N/A         39  37  92  CALM    29.98F
#PROSSER DOT    N/A         40  38  92  E5      N/A
#PROSSER        N/A         38  36  92  NE2     29.99F
#SAGEMOOR 2W    N/A         40  38  92  CALM    29.85F
#TOUCHET 2S     N/A         41  40  96  CALM    29.99F
#WEST PASCO     N/A         42  38  86  CALM    30.01S
$$

WAZ029-190010-
FOOTHILLS OF THE BLUES...WASHINGTON

CITY            SKY/WX      TMP DP  RH  WIND    PRES   REMARKS
WALLA WALLA AP  CLOUDY      45  41  86  CALM    29.96F FOG
#COLLEGE PLACE  N/A         46  34  63  CALM    29.99S
#DAYTON SCHOOL  N/A         49  39  68  CALM    29.96S
#DELANEY DOT    N/A         44  40  86  CALM    N/A
#LOWDEN 2SE     N/A         42  40  93  CALM    29.95S
#PLEASANT VIEW 1N/A         39  39  100 CALM    30.06S
#PRESCOTT       N/A         46  43  89  CALM    29.98F
#SUDBURY        N/A         45  N/A N/A CALM    N/A
#WHITMAN COLLEGEN/A         43  40  89  CALM    30.04F
#WAITSBURG 5S   N/A         45  41  86  NE3     30.09S
#WALLA WALLA 5E N/A         44  43  96  NE1     N/A
#WALLA WALLA U  N/A         43  41  93  CALM    29.99F
#WHITMAN MISSIONN/A         42  41  96  CALM    30.01F
$$

WAZ030-190010-
BLUE MOUNTAINS...WASHINGTON

CITY            SKY/WX      TMP DP  RH  WIND    PRES   REMARKS
#DIXIE 5SE      N/A         45  30  55  S12     29.87S WCI 39
#SKI BLUEWOOD   N/A         36  32  85  W6      30.02S
$$

ORZ009-041-WAZ024-190010-
COLUMBIA RIVER GORGE

CITY            SKY/WX      TMP DP  RH  WIND    PRES   REMARKS
HOOD RIVER AP   CLOUDY      43  39  86  CALM    29.97S
THE DALLES AP   MOCLDY      42  37  82  CALM    29.98S
#ARLINGTON AIRPON/A         37  36  96  E2      30.02S
#ARLINGTON HS   N/A         40  37  89  S3      29.91S
#CELILO DOT     N/A         42  35  76  CALM    N/A
#LYLE           N/A         42  40  93  S3      29.99F
#MARYHILL       N/A         39  38  96  CALM    N/A
#MARYHILL 2W    N/A         39  39  100 CALM    N/A
#MOSIER 1S      N/A         40  39  96  CALM    29.97S
#MURDOCK        N/A         42  40  93  CALM    30.00F
#RUFUS DOT      N/A         42  36  79  CALM    N/A

$$

ORZ510-190010-
NORTH CENTRAL OREGON

CITY            SKY/WX      TMP DP  RH  WIND    PRES   REMARKS
#CHENOWITH 1W   N/A         36  36  100 E5      N/A
#COW CYN RST AREN/A         45  36  70  SE3     N/A
#DUFUR 9E       N/A         36  36  100 CALM    30.03S
#GRASS VALLEY   N/A         40  39  96  N1      N/A
#GRASS VALLEY 1SN/A         40  39  96  CALM    30.00S
#KENT DOT       N/A         44  31  60  E3      N/A
#MAUPIN SCHOOL  N/A         40  36  85  CALM    29.95F
#MORO SCHOOL    N/A         40  40  100 CALM    29.94F
#SHANIKO 5WSW   N/A         42  28  57  SE12    N/A    WCI 35
#SHANIKO 4NW    N/A         42  35  76  S15     29.89S WCI 34
#TYGH VALLEY 2NEN/A         39  37  92  CALM    29.97F
#WAPANITIA AIRPON/A         39  38  96  CALM    29.99F
#WASCO DOT      N/A         41  37  86  NE2     N/A
#WASCO 5NE      N/A         38  37  96  CALM    29.99F
$$

ORZ511-190010-
CENTRAL OREGON

CITY            SKY/WX      TMP DP  RH  WIND    PRES   REMARKS
BEND AIRPORT    MOCLDY      46  32  58  S10     29.93F
MADRAS AIRPORT  MOCLDY      50  37  61  S13     29.92F
PRINEVILLE AP   MOCLDY      46  36  68  SE14    29.92F WCI 40
REDMOND AIRPORT MOCLDY      48  35  60  S10     29.91F
#BEND 1SW       N/A         42  36  79  SW1     N/A
#BEND-AWBREY    N/A         46  38  73  SW9     29.96F
#BEND-KIM LN    N/A         46  36  68  S3      29.88F
#CROOKED RVR RANN/A         49  38  66  W1      29.95F
#CULVER         N/A         49  38  66  SE5     29.86F
#LAKE BILLY CHINN/A         50  23  34  S3      29.98F
#POWELL BUTTE 3EN/A         47  33  58  SE6     N/A
#POWELL BUTTE   N/A         46  34  63  SW10    29.56S
#PRINEVILLE 3N  N/A         47  38  71  SE8     29.95F
#WARM SPRINGS   N/A         43  37  79  CALM    29.90F


ORZ509-190010-
EAST SLOPES OF OREGON CASCADES

CITY            SKY/WX      TMP DP  RH  WIND    PRES   REMARKS
#BLUE BOX PASS  N/A         38  -12 11  CALM    N/A
#BLACK BUTTE RNCN/A         41  38  89  CALM    29.98F
#CAMP SHERMAN   N/A         40  38  92  CALM    29.96F
#LA PINE DOT    N/A         42  27  55  S6      N/A
#LA PINE 4NW    N/A         41  32  70  SW2     30.05S
#LAVA BUTTE DOT N/A         41  28  59  SE6     N/A
#MT BACHELOR-MIDN/A         26  20  78  N30G43  N/A    WCI  9
#SISTERS AIRPOR N/A         43  41  93  CALM    30.17S
#SISTERS ODOT   N/A         43  N/A N/A CALM    N/A
#SISTERS 3N     N/A         42  36  79  CALM    29.93S
#SUNRIVER       N/A         42  35  76  S3      29.89S
#TUMALO 3W      N/A         46  37  71  E6      29.84F
#WANOGA BUTTE D N/A         32  32  100 W12     N/A    WCI 23

$$

ORZ044-190010-
LOWER COLUMBIA BASIN...OREGON

CITY            SKY/WX      TMP DP  RH  WIND    PRES   REMARKS
HERMISTON       LGT RAIN    41  36  82  CALM    29.97S
#BOARDMAN 3W    N/A         39  38  96  NW1     29.74S
#BOARDMAN 8SW   N/A         38  37  96  CALM    30.00S
#ECHO 8SW       N/A         40  35  82  CALM    29.94S
#IONE SCHOOL    N/A         40  29  64  CALM    29.95R
#IRRIGON 4NW    N/A         40  40  100 S1      N/A
#UMATILLA SCHOOLN/A         38  38  100 CALM    30.01F
#UMATILLA       N/A         40  36  85  CALM    29.96F
$$

ORZ507-190010-
NORTHERN FOOTHILLS OF THE BLUES

CITY            SKY/WX      TMP DP  RH  WIND    PRES   REMARKS
PENDLETON AIRPT CLOUDY      41  39  93  SE3     29.94S FOG
#ADAMS 3WNW     N/A         47  44  89  CALM    29.97F
#ATHENA         N/A         50  39  66  SE1     30.01S
#CAYUSE         N/A         43  40  89  CALM    29.99S
#HELIX SCHOOL   N/A         49  42  77  SW3     29.98F
#HELIX 3N       N/A         48  42  80  SE6     29.91S
#HOLDMAN 5SE    N/A         44  42  93  CALM    29.95S
#HOLDMAN 6E     N/A         46  45  96  CALM    29.80S
#M-F GROVE ELEM N/A         43  37  79  CALM    29.95F
#M-FREEWATER 5SEN/A         42  39  89  CALM    29.95F
#PENDLETON DNTN N/A         42  41  96  CALM    28.76S
#PDT AQUATIC CTRN/A         44  43  96  CALM    29.94S
#PENDLETON 5NE  N/A         42  41  96  CALM    29.91S
#PDT SUNRIDGE   N/A         42  40  93  CALM    29.96S
#PENDLETON 7NW  N/A         41  37  86  CALM    N/A
#PILOT ROCK     N/A         43  34  70  CALM    29.95F
#TUTUILLA       N/A         43  40  89  CALM    29.98F
#UMAPINE 2E     N/A         42  40  93  CALM    29.94F
#WESTON SCHOOL  N/A         49  34  56  SW7     29.93S

$$

ORZ508-190010-
SOUTHERN FOOTHILLS OF THE BLUES

CITY            SKY/WX      TMP DP  RH  WIND    PRES   REMARKS
LEXINGTON       MOCLDY      41  39  93  CALM    29.95S FOG
#AJAX           N/A         38  33  82  NE2     29.86F
#CONDON 5W      N/A         43  36  76  S5      29.88S
#FOSSIL SCHOOL  N/A         47  37  68  E3      29.90S
#HEPPNER EOC    N/A         50  37  61  SE3     29.92F
#HEPPNER 4NE    N/A         47  37  68  CALM    29.97F
#LEXINGTON 2SE  N/A         41  38  89  CALM    29.90S
#MIKKALO        N/A         39  36  89  CALM    29.94S
#OLEX 4N        N/A         38  36  92  CALM    29.94F
#RUGGS 5NE      N/A         46  33  60  N6      30.04F
#RUGGS 2SW      N/A         46  37  71  S9      29.99S

$$

ORZ502-503-190010-
BLUE MOUNTAINS

CITY            SKY/WX      TMP DP  RH  WIND    PRES   REMARKS
MEACHAM         CLOUDY      39  34  82  CALM    29.95S
#BATTLE MTN DOT N/A         38  35  89  SE8     N/A
#HARDMAN 10S    N/A         36  34  92  SE5     30.14S
#HEPPNER 15SE   N/A         39  35  85  S2      29.83R
#LADD CYN SMT   N/A         39  31  73  SE20    N/A    WCI 29
#LADD CREEK ODOTN/A         42  -9  11  SW6     N/A
#LONG CREEK HS  N/A         42  38  86  CALM    29.90R
#N POWDER DOT   N/A         40  34  79  SE22    N/A    WCI 30
#PIKES PEAK     N/A         43  32  65  S16G24  27.99S WCI 35
#TOLLGATE       N/A         33  31  92  SW2     29.88R
#TROY SCHOOL    N/A         44  40  86  CALM    29.90S
#UKIAH          N/A         43  36  76  CALM    30.07S
#WESTON 4E      N/A         42  35  76  E7      29.95R
$$

ORZ505-190010-
JOHN DAY BASIN

CITY            SKY/WX      TMP DP  RH  WIND    PRES   REMARKS
JOHN DAY        CLOUDY      44  33  65  S16     29.99R WCI 37
#JOHN DAY KJDY  N/A         47  39  74  CALM    30.11R
#DAYVILLE SCHOOLN/A         32  29  89  CALM    30.16S
#MONUMENT HS    N/A         45  37  73  E2      29.98R
#MT. VERNON 5SE N/A         40  34  79  SE1     29.94R
#WINLOCK        N/A         44  37  76  NW3     30.03R
$$

ORZ506-190010-
OCHOCO AND JOHN DAY HIGHLANDS

CITY            SKY/WX      TMP DP  RH  WIND    PRES   REMARKS
#BUCK CREEK DOT N/A         43  39  86  SE7     N/A
#HORSE RIDGE DO N/A         42  32  67  SE14    N/A    WCI 35
#KEYES SMT DOT  N/A         39  31  73  S5      N/A
#PRAIRIE CITY   N/A         42  30  62  CALM    30.06
#SENECA         N/A         37  N/A N/A S2      N/A
#SENECA 9NW     N/A         35  33  92  CALM    30.06R
$$

ORZ049-190010-
GRANDE RONDE VALLEY

CITY            SKY/WX      TMP DP  RH  WIND    PRES   REMARKS
LA GRANDE       CLOUDY      45  30  55  S15G28  29.98S WCI 38
#COVE           N/A         46  40  79  SE1     30.03S
#COVE SCHOOL    N/A         45  34  65  S6      29.96S
#COVE 6NW       N/A         43  34  70  SE5     30.08S
#ELGIN 3N       N/A         44  31  60  S12     29.72R WCI 38
#ELGIN 1E       N/A         45  35  68  CALM    N/A
#IMBLER SCHOOL  N/A         43  35  73  S10     29.94S
#ISLAND CITY 4N N/A         49  48  96  CALM    29.83F
#LADD CYN DOT   N/A         43  33  67  S21     N/A    WCI 34
#UNION 1S       N/A         45  36  70  S5      29.95S
$$

ORZ050-190010-
WALLOWA COUNTY

CITY            SKY/WX      TMP DP  RH  WIND    PRES   REMARKS
#ENTERPRISE HS  N/A         34  32  92  CALM    29.99S
#IMNAHA SCHOOL  N/A         49  35  58  S15G26  29.98F WCI 43
#IMNAHA 10S     N/A         44  32  62  SW8     29.99S
#JOSEPH 3N      N/A         31  30  96  NW3     30.00S
#JOSEPH 3W      N/A         32  28  85  CALM    29.80S
#LOSTINE        N/A         36  33  89  CALM    29.89S
#MT HOWARD 8000 N/A         27  22  81  SW14G25 29.88S WCI 16
#PROMISE 1S     N/A         37  34  89  CALM    30.15S
#SHEEP RDG 7000 N/A         29  22  75  CALM    30.05R
#WALLOWA SCHOOL N/A         38  34  85  CALM    31.05F



$$



USA.gov is the U.S. government's official web portal to all federal, state and local government web resources and services.